• In Hungary
  • List of Countries
  • For 7 days
  • Water Temperature
  • Satellite Maps
  • Weather Map
  • News
  • Weather Widgets
  • user-avatar
    Login

    Hourly Weather Mauritius

    Today, 21 July, Saturday

    Time Temperature Precipitation Wind Pressure Humidity
    00:00 +19°C° 0.1 mm 10 mps 730 mmHg 70%
    01:00 +19°C° 0.1 mm 10 mps 730 mmHg 69%
    02:00 +19°C° 0.1 mm 10 mps 730 mmHg 69%
    03:00 +19°C° 0.1 mm 10 mps 730 mmHg 68%
    04:00 +19°C° 0.1 mm 10 mps 730 mmHg 68%
    05:00 +19°C° 0 mm 10 mps 730 mmHg 67%
    06:00 +19°C° 0 mm 9 mps 730 mmHg 66%
    07:00 +19°C° 0 mm 9 mps 730 mmHg 65%
    08:00 +19°C° 0.1 mm 9 mps 730 mmHg 65%
    09:00 +21°C° 0.1 mm 9 mps 730 mmHg 64%
    10:00 +21°C° 0.1 mm 9 mps 730 mmHg 64%
    11:00 +21°C° 0.3 mm 9 mps 730 mmHg 66%
    12:00 +21°C° 0.3 mm 9 mps 730 mmHg 68%
    13:00 +21°C° 0.3 mm 9 mps 730 mmHg 71%
    14:00 +21°C° 0.1 mm 9 mps 729 mmHg 70%
    15:00 +21°C° 0.1 mm 9 mps 729 mmHg 70%
    16:00 +21°C° 0.1 mm 9 mps 729 mmHg 70%
    17:00 +19°C° 0.1 mm 9 mps 729 mmHg 70%
    18:00 +19°C° 0.1 mm 9 mps 729 mmHg 70%
    19:00 +19°C° 0.1 mm 9 mps 729 mmHg 69%
    20:00 +19°C° 0.1 mm 9 mps 730 mmHg 69%
    21:00 +19°C° 0.1 mm 9 mps 730 mmHg 69%
    22:00 +19°C° 0.1 mm 9 mps 730 mmHg 68%
    23:00 +20°C° 0.1 mm 8 mps 730 mmHg 68%

    Tomorrow, 22 July, Sunday

    Time Temperature Precipitation Wind Pressure Humidity
    00:00 +20°C° 0.1 mm 8 mps 730 mmHg 69%
    01:00 +20°C° 0.1 mm 8 mps 730 mmHg 69%
    02:00 +20°C° 0.1 mm 7 mps 730 mmHg 69%
    03:00 +20°C° 0.1 mm 7 mps 729 mmHg 68%
    04:00 +20°C° 0.1 mm 7 mps 729 mmHg 68%
    05:00 +20°C° 0 mm 7 mps 729 mmHg 70%
    06:00 +20°C° 0 mm 7 mps 729 mmHg 72%
    07:00 +20°C° 0 mm 7 mps 729 mmHg 74%
    08:00 +20°C° 0 mm 7 mps 730 mmHg 72%
    09:00 +21°C° 0 mm 7 mps 730 mmHg 70%
    10:00 +21°C° 0 mm 7 mps 730 mmHg 69%
    11:00 +21°C° 0.2 mm 7 mps 730 mmHg 68%
    12:00 +22°C° 0.2 mm 7 mps 729 mmHg 67%
    13:00 +22°C° 0.2 mm 7 mps 729 mmHg 67%
    14:00 +22°C° 0.2 mm 6 mps 728 mmHg 68%
    15:00 +21°C° 0.2 mm 6 mps 728 mmHg 69%
    16:00 +21°C° 0.2 mm 6 mps 728 mmHg 71%
    17:00 +21°C° 0.4 mm 6 mps 728 mmHg 73%
    18:00 +20°C° 0.4 mm 6 mps 728 mmHg 75%
    19:00 +20°C° 0.4 mm 6 mps 728 mmHg 77%
    20:00 +20°C° 0.4 mm 7 mps 728 mmHg 77%
    21:00 +20°C° 0.4 mm 7 mps 729 mmHg 78%
    22:00 +20°C° 0.4 mm 7 mps 729 mmHg 79%
    23:00 +20°C° 0.4 mm 7 mps 728 mmHg 79%

    Day after tomorrow, 23 July, Monday

    Time Temperature Precipitation Wind Pressure Humidity
    00:00 +20°C° 0.4 mm 6 mps 728 mmHg 79%
    01:00 +20°C° 0.4 mm 6 mps 728 mmHg 79%
    02:00 +20°C° 0.4 mm 6 mps 728 mmHg 79%
    03:00 +20°C° 0.4 mm 6 mps 728 mmHg 78%
    04:00 +20°C° 0.4 mm 6 mps 727 mmHg 78%
    05:00 +20°C° 0.6 mm 6 mps 727 mmHg 79%
    06:00 +20°C° 0.6 mm 7 mps 728 mmHg 79%
    07:00 +18°C° 0.6 mm 7 mps 728 mmHg 80%
    08:00 +20°C° 0.4 mm 8 mps 728 mmHg 78%
    09:00 +20°C° 0.4 mm 8 mps 729 mmHg 77%
    10:00 +21°C° 0.4 mm 8 mps 729 mmHg 75%
    11:00 +21°C° 0.4 mm 9 mps 729 mmHg 74%
    12:00 +21°C° 0.4 mm 9 mps 729 mmHg 72%
    13:00 +21°C° 0.4 mm 9 mps 728 mmHg 71%
    14:00 +21°C° 0.3 mm 10 mps 728 mmHg 71%
    15:00 +21°C° 0.3 mm 10 mps 728 mmHg 71%
    16:00 +21°C° 0.3 mm 10 mps 728 mmHg 71%
    17:00 +21°C° 0.1 mm 11 mps 728 mmHg 71%
    18:00 +21°C° 0.1 mm 11 mps 728 mmHg 71%
    19:00 +19°C° 0.1 mm 12 mps 729 mmHg 72%
    20:00 +19°C° 0.1 mm 12 mps 729 mmHg 73%
    21:00 +19°C° 0.1 mm 12 mps 729 mmHg 74%
    22:00 +19°C° 0.1 mm 12 mps 730 mmHg 74%
    23:00 +19°C° 0.1 mm 12 mps 729 mmHg 74%

    24 July, Tuesday

    Time Temperature Precipitation Wind Pressure Humidity
    00:00 +19°C° 0.1 mm 12 mps 729 mmHg 74%
    01:00 +19°C° 0.1 mm 12 mps 729 mmHg 73%
    02:00 +19°C° 0.2 mm 12 mps 729 mmHg 74%
    03:00 +19°C° 0.2 mm 12 mps 729 mmHg 75%
    04:00 +19°C° 0.2 mm 12 mps 728 mmHg 75%
    05:00 +19°C° 0.2 mm 12 mps 729 mmHg 76%
    06:00 +18°C° 0.2 mm 12 mps 729 mmHg 76%
    07:00 +18°C° 0.2 mm 12 mps 729 mmHg 76%
    08:00 +19°C° 0.2 mm 11 mps 729 mmHg 75%
    09:00 +19°C° 0.2 mm 11 mps 729 mmHg 74%
    10:00 +19°C° 0.2 mm 11 mps 730 mmHg 74%
    11:00 +21°C° 0.2 mm 11 mps 729 mmHg 72%
    12:00 +21°C° 0.2 mm 11 mps 729 mmHg 71%
    13:00 +21°C° 0.2 mm 10 mps 729 mmHg 70%
    14:00 +21°C° 0.1 mm 10 mps 728 mmHg 70%
    15:00 +21°C° 0.1 mm 10 mps 728 mmHg 71%
    16:00 +21°C° 0.1 mm 10 mps 728 mmHg 71%
    17:00 +21°C° 0.1 mm 10 mps 728 mmHg 72%
    18:00 +19°C° 0.1 mm 10 mps 728 mmHg 73%
    19:00 +19°C° 0.1 mm 10 mps 729 mmHg 74%
    20:00 +19°C° 0 mm 10 mps 729 mmHg 74%
    21:00 +19°C° 0 mm 10 mps 729 mmHg 74%
    22:00 +21°C° 0 mm 10 mps 729 mmHg 73%
    23:00 +21°C° 0 mm 9 mps 729 mmHg 74%

    25 July, Wednesday

    Time Temperature Precipitation Wind Pressure Humidity
    00:00 +21°C° 0 mm 9 mps 728 mmHg 74%
    01:00 +19°C° 0 mm 9 mps 728 mmHg 74%
    02:00 +21°C° 0 mm 9 mps 728 mmHg 75%
    03:00 +21°C° 0 mm 9 mps 727 mmHg 76%
    04:00 +21°C° 0 mm 8 mps 727 mmHg 77%
    05:00 +21°C° 0.1 mm 9 mps 727 mmHg 78%
    06:00 +21°C° 0.1 mm 9 mps 727 mmHg 79%
    07:00 +21°C° 0.1 mm 9 mps 728 mmHg 80%
    08:00 +21°C° 0.3 mm 9 mps 728 mmHg 81%
    09:00 +21°C° 0.3 mm 9 mps 728 mmHg 81%
    10:00 +21°C° 0.3 mm 9 mps 728 mmHg 81%
    11:00 +19°C° 0.6 mm 9 mps 728 mmHg 82%
    12:00 +20°C° 0.6 mm 8 mps 727 mmHg 84%
    13:00 +20°C° 0.6 mm 8 mps 727 mmHg 85%
    14:00 +20°C° 0.2 mm 8 mps 727 mmHg 84%
    15:00 +20°C° 0.2 mm 8 mps 727 mmHg 83%
    16:00 +20°C° 0.2 mm 8 mps 726 mmHg 82%
    17:00 +20°C° 0.7 mm 8 mps 727 mmHg 84%
    18:00 +20°C° 0.7 mm 8 mps 727 mmHg 85%
    19:00 +20°C° 0.7 mm 8 mps 727 mmHg 87%
    20:00 +20°C° 0.5 mm 7 mps 727 mmHg 86%
    21:00 +20°C° 0.5 mm 7 mps 727 mmHg 86%
    22:00 +20°C° 0.5 mm 7 mps 728 mmHg 85%
    23:00 +20°C° 0.8 mm 7 mps 727 mmHg 85%

    26 July, Thursday

    Time Temperature Precipitation Wind Pressure Humidity
    00:00 +20°C° 0.8 mm 7 mps 727 mmHg 85%
    01:00 +20°C° 0.8 mm 6 mps 727 mmHg 85%
    02:00 +20°C° 0.6 mm 6 mps 726 mmHg 85%
    03:00 +20°C° 0.6 mm 6 mps 726 mmHg 85%
    04:00 +20°C° 0.6 mm 6 mps 726 mmHg 85%
    05:00 +20°C° 0.5 mm 6 mps 726 mmHg 86%
    06:00 +20°C° 0.5 mm 7 mps 726 mmHg 86%
    07:00 +20°C° 0.5 mm 7 mps 727 mmHg 86%
    08:00 +20°C° 0.1 mm 7 mps 727 mmHg 86%
    09:00 +20°C° 0.1 mm 7 mps 727 mmHg 86%
    10:00 +21°C° 0.1 mm 6 mps 727 mmHg 85%
    11:00 +21°C° 0.1 mm 6 mps 727 mmHg 84%
    12:00 +21°C° 0.1 mm 6 mps 726 mmHg 83%
    13:00 +21°C° 0.1 mm 6 mps 726 mmHg 82%
    14:00 +21°C° 0 mm 5 mps 725 mmHg 82%
    15:00 +21°C° 0 mm 5 mps 725 mmHg 81%
    16:00 +21°C° 0 mm 4 mps 725 mmHg 81%
    17:00 +21°C° 0 mm 4 mps 725 mmHg 82%
    18:00 +21°C° 0 mm 4 mps 726 mmHg 83%
    19:00 +21°C° 0 mm 4 mps 726 mmHg 83%
    20:00 +21°C° 0 mm 3 mps 726 mmHg 84%
    21:00 +20°C° 0 mm 3 mps 726 mmHg 84%
    22:00 +20°C° 0 mm 3 mps 726 mmHg 84%
    23:00 +20°C° 0 mm 3 mps 726 mmHg 85%
    Show more